Regional Weather Roundup
Issued by NWS

Home | Current Version | Previous Version | Graphics & Text | Print | Product List | Glossary On
Versions: 1 2 3 4 5 6 7 8 9 10 11 12 13 14 15 16 17 18 19 20 21 22 23 24 25 26 27 28 29 30 31 32 33 34 35 36 37 38 39 40 41 42 43 44 45 46 47 48 49 50
000
ASUS43 KBIS 251631
RWRND
NORTH DAKOTA REGIONAL WEATHER ROUNDUP
NATIONAL WEATHER SERVICE EASTERN NORTH DAKOTA/GRAND FORKS ND
1100 AM CDT THU MAY 25 2017

  NOTE: "FAIR" INDICATES FEW OR NO CLOUDS BELOW 12,000 FEET WITH NO
  SIGNIFICANT WEATHER AND/OR OBSTRUCTIONS TO VISIBILITY.

NDZ001>003-009>011-017-251700-
...NORTHWEST NORTH DAKOTA...

CITY           SKY/WX    TMP DP  RH WIND       PRES   REMARKS
WILLISTON      CLOUDY    57  42  57 SW15G26   29.36S
MINOT          FAIR      65  41  41 SW14      29.36S
MINOT AFB      FAIR      64  43  46 SW18G25   29.35S
$$

NDZ018>021-031>035-040>046-251700-
...SOUTHWEST NORTH DAKOTA...

CITY           SKY/WX    TMP DP  RH WIND       PRES   REMARKS
BISMARCK       PTSUNNY   62  49  62 CALM      29.43S
DICKINSON      FAIR      59  32  36 W23G35    29.41F
GARRISON         N/A     63  43  48 W14G22    29.39S
HETTINGER      FAIR      61  36  39 W18       29.47S
$$

NDZ004>008-012>016-024-026-027-054-251700-
...NORTHEAST NORTH DAKOTA...

CITY           SKY/WX    TMP DP  RH WIND       PRES   REMARKS
GRAND FORKS    PTSUNNY   67  48  50 S26G37    29.52F
GRAND FORKS AF FAIR      64  46  53 S23G36    29.51F
DEVILS LAKE    PTSUNNY   58  47  66 S18       29.46F
$$

NDZ022-023-025-028>030-036>039-047>053-251700-
...SOUTHEAST NORTH DAKOTA...

CITY           SKY/WX    TMP DP  RH WIND       PRES   REMARKS
JAMESTOWN      FAIR      63  46  54 S21G30    29.43F
FARGO          CLOUDY    64  48  56 SE21G31   29.53F
WAHPETON       FAIR      64  46  52 SE26G33   29.53F
$$




USA.gov is the U.S. government's official web portal to all federal, state and local government web resources and services.